This demonstration page uses our WeatherBlox Daily Observations layout. Learn more.

Left ArrowRight Arrow

44.8408, -93.29828

Hourly Observations for July 9, 2019

Temp ( °F °C ) Dew Point ( °F °C ) Humidity (%) Winds ( mph kmh ) Pressure ( in mb ) Visibility ( mi km ) Precip ( " mm )
12:53 am 00:53 Mostly Cloudy 74 23.3 63 17.2 69 69 SSE 9 15 29.93 1014 10 16 0.00 0.00
1:53 am 01:53 Mostly Cloudy 75 23.9 62 16.7 64 64 S 13 20 29.91 1013 10 16 0.00 0.00
2:53 am 02:53 Cloudy 74 23.3 62 16.7 67 67 S 10 17 29.91 1013 10 16 0.00 0.00
3:53 am 03:53 Mostly Clear 73 22.8 62 16.7 69 69 S 14 22 29.89 1012 9 14 0.00 0.00
4:53 am 04:53 Partly Cloudy 73 22.8 61 16.1 66 66 S 12 19 29.89 1012 8 13 0.00 0.00
5:53 am 05:53 Mostly Cloudy 70 21.1 62 16.7 76 76 ESE 7 11 29.91 1013 7 11 0.00 0.00
6:53 am 06:53 Mostly Cloudy 71 21.7 61 16.1 71 71 SE 8 13 29.91 1013 7 11 0.00 0.00
7:53 am 07:53 Mostly Cloudy 72 22.2 61 16.1 68 68 SSE 15 24 29.89 1012 8 13 0.00 0.00
8:53 am 08:53 Mostly Cloudy 73 22.8 61 16.1 66 66 SSE 14 22 29.87 1012 8 13 0.00 0.00
9:53 am 09:53 Mostly Cloudy 74 23.3 62 16.7 67 67 SSE 10 17 29.85 1011 8 13 0.00 0.00
10:53 am 10:53 Cloudy 74 23.3 63 17.2 69 69 SSE 10 17 29.86 1011 8 13 0.00 0.00
11:53 am 11:53 Cloudy 76 24.4 64 17.8 67 67 ESE 12 19 29.84 1011 8 13 0.00 0.00
12:53 pm 12:53 Cloudy 77 25 65 18.3 66 66 SE 8 13 29.85 1011 8 13 0.00 0.00
1:53 pm 13:53 Cloudy 77 25 67 19.4 71 71 ESE 15 24 29.80 1009 8 13 0.00 0.03
2:40 pm 14:40 Cloudy with Heavy Rain 76 24.4 68 20 77 77 ESE 10 17 29.76 1008 2 3 0.00 0.03
2:44 pm 14:44 Cloudy with Heavy Rain 75 23.9 68 20 79 79 ESE 12 19 29.77 1008 4 6 0.05 1.27
2:53 pm 14:53 Cloudy with Heavy Rain 74 23.3 69 20.6 85 85 E 9 15 29.78 1009 1 2 0.09 2.29
3:09 pm 15:09 Cloudy with Heavy Rain 73 22.8 69 20.6 87 87 ESE 10 17 29.76 1008 1 2 0.30 7.62
3:16 pm 15:16 Cloudy with Light Rain 73 22.8 69 20.6 87 87 E 8 13 29.76 1008 2 3 0.36 9.14
3:21 pm 15:21 Cloudy with Light Rain 73 22.8 70 21.1 90 90 ESE 9 15 29.77 1008 5 8 0.36 9.14
3:53 pm 15:53 Cloudy with Mist and Fog 74 23.3 71 21.7 91 91 ESE 10 17 29.76 1008 6 10 0.36 9.14
4:31 pm 16:31 Cloudy with Light Rain 75 23.9 71 21.7 88 88 SE 12 19 29.73 1007 3 4 0.00 0.03
4:39 pm 16:39 Cloudy with Light Rain 75 23.9 71 21.7 88 88 SE 12 19 29.72 1006 5 8 0.02 0.51
4:50 pm 16:50 Cloudy with Light Rain 75 24 72 22 89 89 SSE 10 17 29.72 1006 5 8 0.02 0.51
4:53 pm 16:53 Cloudy with Light Rain 75 23.9 71 21.7 88 88 SSE 10 17 29.74 1007 6 10 0.02 0.51
5:20 pm 17:20 Mostly Cloudy 78 25.6 73 22.8 85 85 S 8 13 29.71 1006 8 13 0.00 0.03
5:53 pm 17:53 Cloudy 79 26.1 73 22.8 82 82 VRB 5 7 29.72 1007 8 13 0.00 0.03
6:53 pm 18:53 Mostly Cloudy 80 26.7 72 22.2 76 76 WSW 6 9 29.73 1007 10 16 0.00 0.00
7:53 pm 19:53 Partly Cloudy 80 26.7 72 22.2 76 76 WSW 8 13 29.74 1007 10 16 0.00 0.00
8:53 pm 20:53 Mostly Sunny 79 26.1 70 21.1 74 74 WSW 7 11 29.76 1008 10 16 0.00 0.00
9:53 pm 21:53 Mostly Clear 78 25.6 70 21.1 76 76 WSW 6 9 29.77 1008 10 16 0.00 0.00
10:53 pm 22:53 Mostly Clear 77 25 70 21.1 79 79 SW 7 11 29.79 1009 10 16 0.00 0.00
11:53 pm 23:53 Mostly Clear 76 24.4 70 21.1 82 82 SW 6 9 29.78 1009 10 16 0.00 0.00

Powered by AerisWeather